Location: Azul
(36.7830°S, 59.8500°W)
Time: 12:33:19
(UTC-03:00)

ISS - Pass Details

Date: 18 February 2018
Orbit: 403 x 406 km, 51.6° (Epoch: 26 February)

Event Time Altitude Azimuth Distance (km) Brightness Sun altitude
Rises 20:40:22 0° 353° (N) 2,318 -0.1 -10.0°
Reaches altitude 10° 20:43:13 10° 21° (NNE) 1,469 -1.4 -10.5°
Enters shadow 20:44:02 12° 35° (NE) 1,333 -1.7 -10.6°
